STARLINK-34535, 64698

Orbit data source: Space-Track

STARLINK-34535, 64698 is a payload satellite owned by SpaceX/Seattle (US) in LEO that was launched on Sat, 28 Jun 2025 UTC via an FALCON 9 launch vehicle from the Air Force Western Test Range (AFWTR). Payload-class satellites include a variety of spacecraft equipped with specific instruments for various scientific and technological missions. These include communications satellites like Starlink; space stations such as the ISS; scientific satellites like the Hubble; Earth observation satellites from companies like Planet Labs, Umbra, and HawkEye 360; GPS; miniature CubeSats for education and research; and military/defense satellites.

Loading next visibility...
Identifier
64698, 2025-142C
Orbit
LEO
Country
Flag of USUS
Related business
Manufacturer
SpaceX/Seattle
Mission
Operational Commercial Communications
Bus & Motor
STARLINK V2MO, Unknown motor
Mass
575 kg wet, ~530 kg dry
Launch date (UTC)
2025-06-28 (1 year ago)
Launch vehicle
FALCON 9
Launch site
Air Force Western Test Range (AFWTR)
Object type
Payload
Rocket body
Debris
Shape & HBR
Box + 1 Pan, 17.7 m
Radar Cross Section
41.120 m², Large (>1 m²)

Expand to show TLE details & history
Last TLE update: 1 day ago

TLE from 1 day ago
0 STARLINK-34535
1 64698U 25142C   26263.40585307  .00004819  00000-0  17189-3 0  9999
2 64698  70.0009 181.2444 0003504 269.7695  90.3079 15.29594287 68690
Epoch: 2026-09-20T09:44Z
TLE epoch observation values (Epoch: 2026-09-20T09:44:25.705Z)
Latitude
0.00003°
Longitude
35.83681°
Altitude
479.495 km
Speed
7.626 km/s
True Right ascension
12h 04m 58s
True Declination
0° 00' 00"
Sunlit
Object was in daylight at epoch
Visualization orbit readout
Latitude
Unknown
Longitude
Unknown
Altitude
Unknown
Speed
Unknown
Apparent Right ascension
Unknown
Apparent Declination
Unknown
Sunlit
N/A
Visualization observer readout
Local Sidereal Time
09:56:45
Azimuth
Unknown
Elevation
Unknown
Doppler factor
Unknown
Orbital elements
Apogee altitude
477.345 km
Perigee altitude
472.542 km
Semi-major axis
6,853.081 km
Eccentricity
0.00035
Inclination
70.0009°
RAAN
181.2444°
Arg. of periapsis
269.7695°
True anomaly
90.34805°
Mean anomaly
90.3079°
Eccentric anomaly
90.32798°
Mean motion
3.82573 °/min
Orbital period
94.1 mins
BSTAR
0.00017189
Loading maneuver chart data...
Computing Atmospheric mass density...
Loading historical data...
Loading historical data...
Loading historical data...
Loading historical data...
Loading historical data...
Loading historical data...
Loading historical data...

Documentation

Showing up to 5 results
|